Weather History for Fairfield, IL

Change the Weather History Date:

Tuesday, October 1, 2013

  Actual Average (KMVN) Record (KMVN)
Temperature  
Mean Temperature 71 °F -  
Max Temperature 80 °F 72 °F 86 °F (2002)
Min Temperature 62 °F 47 °F 35 °F (2003)
Cooling Degree Days 6    
Growing Degree Days 21 (Base 50)    
Moisture  
Dew Point 63 °F    
Average Humidity 76    
Maximum Humidity 88    
Minimum Humidity 58    
Precipitation  
Precipitation 0.00 in - - ()
Sea Level Pressure  
Sea Level Pressure 30.02 in    
Wind  
Wind Speed 4 mph (SSW)    
Max Wind Speed 9 mph    
Max Gust Speed -    
Visibility 7 miles    
Events Rain    
Averages and records for this station are not official NWS values.
T = Trace of Precipitation, MM = Missing Value Source: NWS Daily Summary

Daily Weather History Graph

Daily Weather History Graph

Search for Another Location

Airport:

Trip Planner

Search our weather history database for the weather conditions in past years. The results will help you decide how hot, cold, wet, or windy it might be!

Date:

Astronomy

Oct. 01, 2013 Rise Set
Actual Time 6:49 AM CDT 6:36 PM CDT
Civil Twilight 6:23 AM CDT 7:02 PM CDT
Nautical Twilight 5:52 AM CDT 7:33 PM CDT
Astronomical Twilight 5:21 AM CDT 8:03 PM CDT
Moon 3:26 AM CDT (10/1) 4:37 PM CDT (10/1)
Length of Visible Light 12h 39m
Length of Day
11h 46m
Waning Crescent, 12% of the Moon is Illuminated
Oct 1
Waning Crescent
Oct 4
New
Oct 11
First Quarter
Oct 18
Full
Oct 26
Last Quarter

Hourly Weather History & Observations

Time (CDT) Temp. Heat Index Dew Point Humidity Pressure Visibility Wind Dir Wind Speed Gust Speed Precip Events Conditions
12:15 AM 62.6 °F - 57.2 °F 82% 29.98 in 7.0 mi South 3.5 mph - N/A   Clear
12:35 AM 62.6 °F - 57.2 °F 82% 29.98 in 7.0 mi Calm Calm - N/A   Clear
12:55 AM 62.6 °F - 57.2 °F 82% 29.98 in 5.0 mi SSW 3.5 mph - N/A   Haze
1:15 AM 62.6 °F - 57.2 °F 82% 29.98 in 7.0 mi South 3.5 mph - N/A   Clear
1:35 AM 62.6 °F - 57.2 °F 82% 29.99 in 5.0 mi South 3.5 mph - N/A   Haze
1:55 AM 62.6 °F - 57.2 °F 82% 30.00 in 5.0 mi Calm Calm - N/A   Haze
2:15 AM 64.4 °F - 59.0 °F 83% 30.00 in 5.0 mi SW 3.5 mph - N/A   Haze
2:35 AM 64.4 °F - 60.8 °F 88% 29.99 in 5.0 mi SW 4.6 mph - N/A   Overcast
2:55 AM 64.4 °F - 60.8 °F 88% 30.00 in 5.0 mi Calm Calm - N/A   Haze
3:15 AM 64.4 °F - 60.8 °F 88% 30.00 in 5.0 mi Calm Calm - N/A   Haze
3:35 AM 64.4 °F - 60.8 °F 88% 29.99 in 5.0 mi South 3.5 mph - N/A   Haze
3:55 AM 64.4 °F - 60.8 °F 88% 29.99 in 4.0 mi Calm Calm - N/A   Haze
4:15 AM 64.4 °F - 60.8 °F 88% 30.00 in 4.0 mi Calm Calm - N/A   Haze
4:35 AM 66.2 °F - 60.8 °F 83% 30.00 in 4.0 mi Calm Calm - N/A   Haze
4:55 AM 66.2 °F - 60.8 °F 83% 30.00 in 4.0 mi Calm Calm - N/A   Haze
5:15 AM 66.2 °F - 60.8 °F 83% 30.01 in 4.0 mi Calm Calm - N/A   Haze
5:35 AM 64.4 °F - 60.8 °F 88% 30.02 in 4.0 mi SSW 4.6 mph - N/A   Haze
5:55 AM 64.4 °F - 60.8 °F 88% 30.02 in 4.0 mi SSW 3.5 mph - N/A   Haze
6:15 AM 64.4 °F - 60.8 °F 88% 30.03 in 4.0 mi South 3.5 mph - N/A   Haze
6:35 AM 64.4 °F - 60.8 °F 88% 30.03 in 4.0 mi Calm Calm - N/A   Haze
6:55 AM 66.2 °F - 60.8 °F 83% 30.04 in 4.0 mi Calm Calm - N/A   Haze
7:15 AM 66.2 °F - 60.8 °F 83% 30.05 in 5.0 mi Calm Calm - N/A   Haze
7:35 AM 66.2 °F - 62.6 °F 88% 30.05 in 4.0 mi South 3.5 mph - N/A   Haze
7:55 AM 66.2 °F - 62.6 °F 88% 30.05 in 4.0 mi Calm Calm - N/A   Haze
8:15 AM 66.2 °F - 62.6 °F 88% 30.06 in 5.0 mi South 3.5 mph - N/A   Haze
8:35 AM 68.0 °F - 62.6 °F 83% 30.06 in 5.0 mi South 4.6 mph - N/A   Haze
8:55 AM 68.0 °F - 62.6 °F 83% 30.06 in 7.0 mi South 4.6 mph - N/A   Overcast
9:15 AM 69.8 °F - 62.6 °F 78% 30.06 in 7.0 mi South 3.5 mph - N/A   Overcast
9:35 AM 69.8 °F - 62.6 °F 78% 30.07 in 5.0 mi SSW 5.8 mph - N/A   Haze
9:55 AM 69.8 °F - 62.6 °F 78% 30.07 in 7.0 mi South 6.9 mph - N/A   Overcast
10:15 AM 69.8 °F - 62.6 °F 78% 30.07 in 7.0 mi South 5.8 mph - N/A   Overcast
10:35 AM 71.6 °F - 64.4 °F 78% 30.06 in 7.0 mi SSW 8.1 mph - N/A   Overcast
10:55 AM 71.6 °F - 64.4 °F 78% 30.06 in 7.0 mi SSW 8.1 mph - N/A   Overcast
11:15 AM 73.4 °F - 64.4 °F 73% 30.06 in 10.0 mi SSW 8.1 mph - N/A   Overcast
11:35 AM 75.2 °F - 64.4 °F 69% 30.05 in 10.0 mi SSW 8.1 mph - N/A   Mostly Cloudy
11:55 AM 75.2 °F - 64.4 °F 69% 30.05 in 10.0 mi SSW 6.9 mph - N/A   Mostly Cloudy
12:15 PM 78.8 °F - 64.4 °F 61% 30.05 in 10.0 mi South 9.2 mph - N/A   Mostly Cloudy
12:35 PM 78.8 °F - 64.4 °F 61% 30.04 in 10.0 mi South 8.1 mph - N/A   Mostly Cloudy
12:55 PM 78.8 °F - 66.2 °F 65% 30.03 in 10.0 mi SW 6.9 mph - N/A   Mostly Cloudy
1:15 PM 78.8 °F - 64.4 °F 61% 30.03 in 10.0 mi SSW 9.2 mph - N/A   Mostly Cloudy
1:35 PM 78.8 °F - 66.2 °F 65% 30.02 in 10.0 mi SSW 9.2 mph - N/A   Mostly Cloudy
1:55 PM 78.8 °F - 64.4 °F 61% 30.02 in 10.0 mi SSW 8.1 mph - N/A   Mostly Cloudy
2:15 PM 80.6 °F 82.7 °F 66.2 °F 61% 30.01 in 10.0 mi SSW 6.9 mph - N/A   Mostly Cloudy
2:35 PM 80.6 °F 82.7 °F 66.2 °F 61% 30.01 in 10.0 mi South 8.1 mph - N/A   Scattered Clouds
2:55 PM 78.8 °F - 66.2 °F 65% 30.01 in 10.0 mi WSW 3.5 mph - N/A   Mostly Cloudy
3:15 PM 80.6 °F 82.3 °F 64.4 °F 58% 30.01 in 10.0 mi SSE 5.8 mph - N/A   Mostly Cloudy
3:35 PM 80.6 °F 82.3 °F 64.4 °F 58% 30.00 in 10.0 mi South 6.9 mph - N/A   Mostly Cloudy
3:55 PM 80.6 °F 82.3 °F 64.4 °F 58% 30.01 in 10.0 mi SSW 4.6 mph - N/A   Mostly Cloudy
4:15 PM 80.6 °F 82.7 °F 66.2 °F 61% 30.00 in 10.0 mi SW 5.8 mph - N/A   Scattered Clouds
4:35 PM 80.6 °F 82.7 °F 66.2 °F 61% 30.00 in 10.0 mi SW 3.5 mph - N/A   Mostly Cloudy
4:55 PM 80.6 °F 82.3 °F 64.4 °F 58% 30.00 in 10.0 mi SW 5.8 mph - N/A   Mostly Cloudy
5:15 PM 80.6 °F 82.3 °F 64.4 °F 58% 30.00 in 10.0 mi SW 5.8 mph - N/A   Overcast
5:35 PM 78.8 °F - 66.2 °F 65% 30.00 in 10.0 mi SSW 6.9 mph - N/A Rain Light Rain
5:55 PM 78.8 °F - 66.2 °F 65% 30.01 in 10.0 mi SSW 8.1 mph - N/A   Mostly Cloudy
6:15 PM 77.0 °F - 66.2 °F 69% 30.01 in 10.0 mi SSW 8.1 mph - N/A   Scattered Clouds
6:35 PM 75.2 °F - 66.2 °F 73% 30.01 in 10.0 mi SSW 8.1 mph - N/A   Scattered Clouds
6:55 PM 73.4 °F - 66.2 °F 78% 30.01 in 10.0 mi SW 4.6 mph - N/A   Scattered Clouds
7:15 PM 73.4 °F - 66.2 °F 78% 30.01 in 10.0 mi Calm Calm - N/A   Clear
7:35 PM 73.4 °F - 64.4 °F 73% 30.02 in 10.0 mi South 3.5 mph - N/A   Clear
7:55 PM 71.6 °F - 64.4 °F 78% 30.02 in 7.0 mi SSW 3.5 mph - N/A   Clear
8:15 PM 71.6 °F - 64.4 °F 78% 30.02 in 7.0 mi Calm Calm - N/A   Clear
8:35 PM 71.6 °F - 64.4 °F 78% 30.02 in 7.0 mi SW 3.5 mph - N/A   Scattered Clouds
8:55 PM 69.8 °F - 64.4 °F 83% 30.02 in 7.0 mi SSW 3.5 mph - N/A   Scattered Clouds
9:15 PM 69.8 °F - 64.4 °F 83% 30.03 in 5.0 mi Calm Calm - N/A   Haze
9:35 PM 69.8 °F - 64.4 °F 83% 30.03 in 5.0 mi SSW 4.6 mph - N/A   Haze
9:55 PM 69.8 °F - 64.4 °F 83% 30.04 in 5.0 mi SW 4.6 mph - N/A   Haze
10:15 PM 69.8 °F - 64.4 °F 83% 30.04 in 5.0 mi SSW 5.8 mph - N/A   Haze
10:35 PM 69.8 °F - 64.4 °F 83% 30.04 in 4.0 mi South 5.8 mph - N/A   Haze
10:55 PM 69.8 °F - 64.4 °F 83% 30.04 in 4.0 mi SSW 5.8 mph - N/A   Haze
11:15 PM 71.6 °F - 64.4 °F 78% 30.04 in 4.0 mi SSW 8.1 mph - N/A   Haze
11:35 PM 71.6 °F - 64.4 °F 78% 30.05 in 5.0 mi SSW 6.9 mph - N/A   Haze
11:55 PM 71.6 °F - 64.4 °F 78% 30.05 in 5.0 mi SSW 6.9 mph - N/A   Haze